Weather History for KHOB - January, 2013

Change the Weather History Date:

Friday, January 25, 2013

  Actual Average Record
Temperature  
Mean Temperature 57 °F -  
Max Temperature 68 °F 57 °F 79 °F (1952)
Min Temperature 46 °F 30 °F 18 °F (1949)
Degree Days  
Heating Degree Days 8    
Growing Degree Days 7 (Base 50)    
Moisture  
Dew Point 31 °F    
Average Humidity 43    
Maximum Humidity 57    
Minimum Humidity 26    
Precipitation  
Precipitation 0.00 in - - ()
Sea Level Pressure  
Sea Level Pressure 30.16 in    
Wind  
Wind Speed 10 mph (NNE)    
Max Wind Speed 17 mph    
Max Gust Speed 23 mph    
Visibility 10 miles    
Events      
Averages and records for this station are not official NWS values.
T = Trace of Precipitation, MM = Missing Value Source: NWS Daily Summary

Daily Weather History Graph

Daily Weather History Graph

Search for Another Location

Airport or City:

Trip Planner

Search our weather history database for the weather conditions in past years. The results will help you decide how hot, cold, wet, or windy it might be!

Date:

Astronomy

Jan. 25, 2013 Rise Set
Actual Time 6:51 AM MST 5:19 PM MST
Civil Twilight 6:25 AM MST 5:45 PM MST
Nautical Twilight 5:55 AM MST 6:15 PM MST
Astronomical Twilight 5:26 AM MST 6:44 PM MST
Moon 4:18 PM MST (1/25) 5:32 AM MST (1/25)
Length of Visible Light 11h 20m
Length of Day
10h 27m
Waxing Gibbous, 98% of the Moon is Illuminated
Jan 25
Waxing Gibbous
Jan 26
Full
Feb 3
Last Quarter
Feb 10
New
Feb 17
First Quarter

Hourly Weather History & Observations

Time (MST) Temp. Windchill Dew Point Humidity Pressure Visibility Wind Dir Wind Speed Gust Speed Precip Events Conditions
12:15 AM 53.6 °F - 26.6 °F 35% 30.13 in 10.0 mi West 12.7 mph - N/A   Clear
12:35 AM 53.6 °F - 26.6 °F 35% 30.13 in 10.0 mi West 12.7 mph - N/A   Clear
12:55 AM 55.4 °F - 26.6 °F 33% 30.13 in 10.0 mi West 11.5 mph - N/A   Clear
1:15 AM 53.6 °F - 26.6 °F 35% 30.14 in 10.0 mi West 12.7 mph - N/A   Clear
1:35 AM 53.6 °F - 26.6 °F 35% 30.14 in 10.0 mi West 12.7 mph - N/A   Clear
1:55 AM 53.6 °F - 28.4 °F 38% 30.13 in 10.0 mi West 12.7 mph - N/A   Clear
2:15 AM 53.6 °F - 28.4 °F 38% 30.14 in 10.0 mi West 11.5 mph - N/A   Clear
2:35 AM 53.6 °F - 28.4 °F 38% 30.13 in 10.0 mi West 10.4 mph - N/A   Clear
2:55 AM 50.0 °F - 28.4 °F 43% 30.14 in 10.0 mi West 9.2 mph - N/A   Clear
3:15 AM 50.0 °F - 28.4 °F 43% 30.14 in 10.0 mi WNW 9.2 mph - N/A   Clear
3:35 AM 50.0 °F - 28.4 °F 43% 30.14 in 10.0 mi West 11.5 mph - N/A   Clear
5:50 AM 55.4 °F - 35.6 °F 47% 30.15 in 10.0 mi West 16.1 mph - N/A   Clear
6:50 AM 51.8 °F - 35.6 °F 54% 30.15 in 10.0 mi WNW 12.7 mph - N/A   Clear
7:50 AM 53.6 °F - 35.6 °F 51% 30.15 in 10.0 mi WNW 16.1 mph 20.7 mph N/A   Clear
8:50 AM 59.0 °F - 35.6 °F 42% 30.19 in 10.0 mi WNW 16.1 mph 23.0 mph N/A   Clear
9:50 AM 64.4 °F - 33.8 °F 32% 30.21 in 10.0 mi NW 17.3 mph - N/A   Clear
10:50 AM 66.2 °F - 32.0 °F 28% 30.20 in 10.0 mi North 13.8 mph - N/A   Clear
11:50 AM 66.2 °F - 32.0 °F 28% 30.19 in 10.0 mi North 6.9 mph - N/A   Clear
12:50 PM 68.0 °F - 32.0 °F 26% 30.16 in 10.0 mi Variable 5.8 mph - N/A   Clear
1:50 PM 68.0 °F - 32.0 °F 26% 30.14 in 10.0 mi WNW 9.2 mph - N/A   Scattered Clouds
2:50 PM 66.2 °F - 32.0 °F 28% 30.13 in 10.0 mi NW 8.1 mph - N/A   Partly Cloudy
3:50 PM 66.2 °F - 32.0 °F 28% 30.12 in 10.0 mi North 6.9 mph - N/A   Clear
4:50 PM 64.4 °F - 28.4 °F 26% 30.13 in 10.0 mi Calm Calm - N/A   Clear
5:15 PM 60.8 °F - 30.2 °F 31% 30.14 in 10.0 mi East 9.2 mph - N/A   Clear
5:35 PM 57.2 °F - 32.0 °F 38% 30.14 in 10.0 mi East 8.1 mph - N/A   Clear
5:45 PM 57.2 °F - 32.0 °F 38% 30.14 in 10.0 mi ENE 8.1 mph - N/A   Clear
5:55 PM 55.4 °F - 32.0 °F 41% 30.15 in 10.0 mi East 8.1 mph - N/A   Clear
6:15 PM 53.6 °F - 32.0 °F 44% 30.15 in 10.0 mi ENE 6.9 mph - N/A   Clear
6:35 PM 51.8 °F - 32.0 °F 47% 30.17 in 10.0 mi East 6.9 mph - N/A   Clear
6:55 PM 50.0 °F - 32.0 °F 50% 30.17 in 9.0 mi ENE 6.9 mph - N/A   Clear
7:15 PM 50.0 °F - 32.0 °F 50% 30.17 in 10.0 mi NE 6.9 mph - N/A   Clear
7:35 PM 50.0 °F - 32.0 °F 50% 30.17 in 10.0 mi ENE 5.8 mph - N/A   Clear
7:55 PM 48.2 °F - 32.0 °F 54% 30.18 in 10.0 mi ENE 6.9 mph - N/A   Clear
8:15 PM 48.2 °F - 32.0 °F 54% 30.17 in 10.0 mi ENE 5.8 mph - N/A   Clear
8:35 PM 48.2 °F - 32.0 °F 54% 30.17 in 10.0 mi ENE 6.9 mph - N/A   Partly Cloudy
8:55 PM 48.2 °F - 32.0 °F 54% 30.17 in 10.0 mi East 5.8 mph - N/A   Mostly Cloudy
9:15 PM 46.4 °F 43.5 °F 32.0 °F 57% 30.18 in 10.0 mi ENE 5.8 mph - N/A   Partly Cloudy
9:35 PM 46.4 °F 45.2 °F 32.0 °F 57% 30.18 in 10.0 mi East 3.5 mph - N/A   Clear
9:55 PM 46.4 °F 44.3 °F 32.0 °F 57% 30.18 in 10.0 mi East 4.6 mph - N/A   Mostly Cloudy
10:15 PM 46.4 °F 45.2 °F 32.0 °F 57% 30.17 in 10.0 mi East 3.5 mph - N/A   Scattered Clouds
10:35 PM 46.4 °F 45.2 °F 32.0 °F 57% 30.17 in 10.0 mi East 3.5 mph - N/A   Clear
11:15 PM 46.4 °F 45.2 °F 32.0 °F 57% 30.17 in 10.0 mi East 3.5 mph - N/A   Clear
11:35 PM 46.4 °F 45.2 °F 32.0 °F 57% 30.17 in 10.0 mi ENE 3.5 mph - N/A   Clear
11:55 PM 46.4 °F 45.2 °F 32.0 °F 57% 30.17 in 10.0 mi East 3.5 mph - N/A   Mostly Cloudy